Regional Weather Roundup
Issued by NWS

Home | Current Version | Previous Version | Text Only | Print | Product List | Glossary On
Versions: 1 2 3 4 5 6 7 8 9 10 11 12 13 14 15 16 17 18 19 20 21 22 23 24 25 26 27
000
ASUS45 KTFX 251810
RWRMT
MONTANA REGIONAL WEATHER ROUNDUP
NATIONAL WEATHER SERVICE GREAT FALLS MT
1200 PM MDT THU MAY 25 2017

NOTE: "FAIR" INDICATES FEW OR NO CLOUDS BELOW 12000 FEET WITH NO
SIGNIFICANT WEATHER AND/OR OBSTRUCTIONS TO VISIBILITY.

MTZ001>007-043-251900-
WEST OF THE DIVIDE

CITY           SKY/WX    TMP DP  RH WIND       PRES   REMARKS
KALISPELL      PTSUNNY   56  40  55 NE7       29.79S
MISSOULA       MOSUNNY   57  34  41 CALM      29.80F
BUTTE          CLOUDY    45  30  55 VRB6      29.83R
MULLAN PASS    CLOUDY    47  29  49 VRB3      29.84R
ANACONDA         N/A     48  32  53 N6        29.82S
EUREKA           N/A     55  37  50 N6        29.80S
HAMILTON         N/A     55  32  41 NW5       29.82R
PLAINS           N/A     62  36  38 CALM      29.82
RONAN            N/A     58  36  43 SW2       29.86S
$$

MTZ008-052>055-251900-
SOUTHWEST MONTANA

CITY           SKY/WX    TMP DP  RH WIND       PRES   REMARKS
BOZEMAN        CLOUDY    47  40  76 CALM      29.83R
DILLON         CLOUDY    51  27  39 N7G18     29.80F
W YELLOWSTONE  CLOUDY    46  21  36 N7G16     29.80R
ENNIS          CLOUDY    46  30  53 CALM      29.87S
THREE FORKS      N/A     49  40  71 E5        29.83R
$$

MTZ009-010-012-014-046-048-049-054-251900-
EAST SLOPES AND CENTRAL MONTANA

CITY           SKY/WX    TMP DP  RH WIND       PRES   REMARKS
CUT BANK       MOSUNNY   55  32  41 N35G48    29.73R
GREAT FALLS    MOSUNNY   55  33  43 NW26G38   29.72R
MALMSTROM AFB  CLOUDY    56  34  43 NW25G38   29.72R
HELENA         CLOUDY    53  35  50 SW9       29.78R
CHOTEAU          N/A     57  30  35 NW32G44   29.75S
CONRAD           N/A     57  43  59 NW29      29.77R
$$

MTZ011-013-016-021-045-047-050-051-251900-
NORTH CENTRAL MONTANA

CITY           SKY/WX    TMP DP  RH WIND       PRES   REMARKS
HAVRE          CLOUDY    51  40  65 NW25G36   29.59R
LEWISTOWN      CLOUDY    46  37  71 NW20G37   29.65R
N BAR RANCH    CLOUDY    45  37  76 NW24G39   29.64R
CHINOOK          N/A     52  39  62 W25G33    29.54R
FORT BENTON      N/A     55  36  47 CALM      29.66R
$$

MTZ017>020-022>027-061-062-251900-
NORTHEAST MONTANA

CITY           SKY/WX    TMP DP  RH WIND       PRES   REMARKS
GLASGOW        PTSUNNY   58  39  49 NW28G43   29.40R
JORDAN           N/A     54  41  61 NW21G33   29.49R
SIDNEY         CLOUDY    60  44  55 W25       29.39R
WOLF POINT     CLOUDY    62  44  51 W24G33    29.37R
MALTA          MOSUNNY   61  41  48 NW28G36   29.45R
PLENTYWOOD       N/A     57  45  62 W18G28    29.31R
POPLAR           N/A     59  43  55 W20G30    29.37R
SCOBEY           N/A     55  34  45 W25       29.37R
$$

MTZ028>42-056>058-251900-
SOUTHCENTRAL AND SOUTHEAST MONTANA

CITY           SKY/WX    TMP DP  RH WIND       PRES   REMARKS
BAKER          CLOUDY    60  37  42 W23G36    29.49R
BILLINGS       CLOUDY    54  38  54 W20G29    29.65R
LIVINGSTON     CLOUDY    44  35  70 W16G26    29.77R
MILES CITY     CLOUDY    59  38  45 W29G37    29.51R
BIG TIMBER     PTSUNNY   50  36  57 W31G44    29.74S
EKALAKA          N/A     59  33  37 W17       29.56R
FORSYTH          N/A     55  39  54 W25G32    29.53S
LAUREL           N/A     54  33  44 W22       29.70R
ROUNDUP          N/A     53  36  52 W28       29.58R
$$

REGIONAL REPORTS...DAKOTAS

CITY           SKY/WX    TMP DP  RH WIND       PRES   REMARKS
WILLISTON      CLOUDY    58  45  62 S13       29.36S
MINOT          SUNNY     69  37  30 S22       29.36S
DICKINSON      SUNNY     63  37  38 W28G38    29.42R
BEACH          CLOUDY    55  43  62 W22G32    29.49R
CROSBY         PTSUNNY   57  50  77 S21G28    29.31F
TIOGA          PTSUNNY   57  52  82 W25       29.36R
WATFORD CITY     N/A     59  45  58 SW25G31   29.39R
BISMARCK       SUNNY     72  37  28 NW8       29.43S
GRAND FORKS    CLOUDY    68  47  46 SE25G35   29.49F
FARGO          MOSUNNY   69  47  45 SE18G38   29.50F
BUFFALO SD       N/A     64  34  32 W25       29.45R
RAPID CITY     PTSUNNY   67  26  21 N10       29.54R
$$

REGIONAL REPORTS...WYOMING/IDAHO/WASHINGTON

CITY           SKY/WX    TMP DP  RH WIND       PRES   REMARKS
GILLETTE       SUNNY     59  33  37 W14G21    29.61R
SHERIDAN       MOSUNNY   56  38  50 NW26G36   29.64R
BUFFALO WY     SUNNY     58  33  39 N23G29    29.64R
CODY           CLOUDY    51  24  34 N14       29.72R
YELLOWSTONE LA   N/A     35  23  61 CALM      29.83R
IDAHO FALLS    MOSUNNY   55  24  30 NW9       29.79S
SALMON         CLOUDY    54  30  40 N5        29.77F
BOISE          SUNNY     60  32  34 NW7       29.75F
SPOKANE        CLOUDY    53  39  59 S8        29.84S
$$

REGIONAL REPORTS...ALBERTA

CITY           SKY/WX    TMP DP  RH WIND       PRES   REMARKS
EDMONTON       PTSUNNY   57  43  58 NW21G31   29.70S
CALGARY        PTSUNNY   54  37  54 NW25G33   29.76R
LETHBRIDGE     PTSUNNY   55  36  47 N28G40    29.72R
MEDICINE HAT   CLOUDY    52  39  62 NW26G40   29.57R
WATERTON GATE    N/A     52  32  46 N13G21      N/A
CARDSTON         N/A     54  36  50 N20G29      N/A
ONEFOUR          N/A     48  39  71 NW37G51     N/A
$$

REGIONAL REPORTS...SASKATCHEWAN

CITY           SKY/WX    TMP DP  RH WIND       PRES   REMARKS
SWIFT CURRENT  CLOUDY    52  43  71 NW24G30   29.34R
REGINA         CLOUDY    50  46  87 W15G22    29.24R
SASKATOON      PTSUNNY   55  46  71 N13       29.31R
VAL MARIE        N/A     52  41  66 NW26G33     N/A
ROCKGLEN         N/A     52  41  66 NW20G30     N/A
ASSINIBOIA       N/A     55  39  54 N28G35      N/A
$$




USA.gov is the U.S. government's official web portal to all federal, state and local government web resources and services.